sat.trackr.live / text

‹ back to catalog

RESURS-DK 1

NORAD 29228 · 2006-021A

PAYLOAD ACTIVE UNKNOWN

§ Identity

Operator
Country
CIS
Launch date
2006-06-15
Launch site
TYMSC
Launch vehicle
Mass (kg)
RCS (m²)
8.77

Purposes: earth_obs

External: N2YO · Heavens-Above · Gunter

§ Orbital elements

Epoch: 2026-05-25T02:19:14.826432Z

Period
95.17 min
Inclination
69.9323°
Eccentricity
0.0005261
Mean motion
15.13100064 rev/d
Perigee alt
523.1 km
Apogee alt
530.4 km
Semi-major
6,904.9 km
B*
9.7842e-5
RAAN
39.3216°
Arg perigee
319.3729°
Mean anomaly
40.7044°
Rev number
9,908

§ Raw data

RESURS-DK 11 29228U 06021A   26145.09669938  .00001628  00000+0  97842-4 0  99902 29228  69.9323  39.3216 0005261 319.3729  40.7044 15.13100064 99085

JSON: /api/v1/satellites/29228 · /tle

For live sub-satellite position, see the globe view (requires WebGL).

§ Visibility from observer

Set your observer location to see the next 7 days of passes ≥ 10°. The values pass through the URL so the page stays shareable.

No JS? Fill the form by hand. The geolocation button needs JavaScript.